Location: Chmeln�
(49.6483°N, 14.9871°E)
Time: 02:59:29
(UTC+00:00)

Cosmos 1844 - Pass Details

Date: 18 September 2020
Orbit: 824 x 866 km, 70.9° (Epoch: 24 October)

Event Time Altitude Azimuth Distance (km) Brightness Sun altitude
Rises 19:27:09 0° 201° (SSW) 3,412 6.7 -22.5°
Reaches altitude 10° 19:29:36 10° 199° (SSW) 2,474 6.0 -22.8°
Maximum altitude 19:35:17 75° 116° (ESE) 878 3.5 -23.6°
Drops below altitude 10° 19:40:55 10° 32° (NNE) 2,462 6.1 -24.3°
Sets 19:43:21 0° 31° (NNE) 3,394 6.9 -24.6°
